User: anonymous   Login
Location: Caltech
(34.1382°N, 118.1253°W)
Time: 02:21:02
(UTC-07:00)
Language:

Oscar 16 - Orbit

View from above orbital plane
View from above orbital plane
View from above satellite
View from above satellite

Ground track
Ground track

The orbit data is extracted from the following two-line orbital elements,

1 20439U 90005D   15240.57842696  .00000057  00000-0  37274-4 0  9990
2 20439 098.5428 175.7209 0009998 311.6339 155.9205 14.32565042337101
Epoch (UTC): 28 August 2015 13:52:56
Eccentricity: 0.0009998
inclination: 98.5428°
perigee height: 776 km
apogee height: 790 km
right ascension of ascending node: 175.7209°
argument of perigee: 311.6339°
revolutions per day: 14.32565042
mean anomaly at epoch: 155.9205°
orbit number at epoch: 33710

The dashed part of the orbit path shows where the satellite is in the earth's shadow,  

DLR